Home   Weather   Tuscaloosa   Past weeks
Flag for USA

Past Weather in Tuscaloosa, Alabama, USA — Yesterday and Last 2 Weeks

Now
38 °F

Sunny.


Feels Like: 28 °F
Forecast: 39 / 25 °F
Wind: 18 mph from North

Location: Tuscaloosa Municipal Airport

Current Time: Nov 12, 2019 at 2:53:52 pm

Latest Report: Nov 12, 2019 at 1:53 pm


Visibility: 10 mi

Pressure: 30.33 "Hg

Humidity: 51%

Dew Point: 21 °F

Location of TuscaloosaLocation

Past Weather in Tuscaloosa — Graph

°F

Tuscaloosa Temperature Yesterday

Maximum temperature yesterday: 70 °F (at 2:53 pm)
Minimum temperature yesterday: 40 °F (at 4:53 am)
Average temperature yesterday: 56 °F

High & Low Weather Summary for the Past Weeks

 TemperatureHumidityPressure
High77 °F (Nov 6, 1:53 pm)97% (Oct 28, 8:53 pm)30.42 "Hg (Oct 28, 8:53 pm)
Low30 °F (Nov 9, 2:53 am)27% (Nov 6, 12:53 pm)29.82 "Hg (Oct 31, 3:53 am)
Average53 °F78%30.18 "Hg
* Reported Oct 28 1:53 pm — Nov 12 12:53 pm, Tuscaloosa. Weather by CustomWeather, © 2019

Note: Actual official high and low records may vary slightly from our data, if they occured in-between our weather recording intervals... More about our weather records

Advertising

Tuscaloosa Weather History for the Previous 24 Hours

Scroll right to see more
 ConditionsComfort  
Time TempWeatherWind HumidityBarometerVisibility
12:53 pm
Tue, Nov 12
38 °FScattered clouds.16 mph55%30.34 "Hg10 mi
11:53 am36 °FPartly sunny.13 mph62%30.36 "Hg10 mi
11:30 am36 °FPartly sunny.21 mph62%30.37 "Hg10 mi
10:53 am34 °FLight rain. Overcast.17 mph64%30.37 "Hg10 mi
9:53 am33 °FOvercast.21 mph70%30.37 "Hg10 mi
8:53 am33 °FOvercast.20 mph72%30.36 "Hg10 mi
7:53 am34 °FOvercast.14 mph76%30.34 "Hg10 mi
6:53 am34 °FOvercast.15 mph82%30.30 "Hg10 mi
5:53 am35 °FOvercast.14 mph85%30.26 "Hg10 mi
4:53 am36 °FLight rain. Overcast.12 mph85%30.23 "Hg10 mi
3:53 am37 °FLight rain. Overcast.15 mph86%30.18 "Hg10 mi
3:33 am38 °FLight rain. Overcast.12 mph90%30.17 "Hg8 mi
2:53 am40 °FLight rain. Mostly cloudy.9 mph89%30.14 "Hg8 mi
2:39 am41 °FLight rain. Mostly cloudy.13 mph86%30.13 "Hg8 mi
2:26 am41 °FRain. Fog.17 mph86%30.12 "Hg6 mi
2:17 am41 °FRain. Fog.14 mph89%30.12 "Hg5 mi
1:53 am42 °FLight rain. Mostly cloudy.18 mph85%30.11 "Hg9 mi
1:29 am43 °FRain. Fog.17 mph89%30.11 "Hg4 mi
12:53 am45 °FLight rain. Fog.16 mph86%30.10 "Hg5 mi
12:00 am47 °FLight rain. Overcast.13 mph90%30.05 "Hg10 mi
11:09 pm
Mon, Nov 11
58 °FRain. Fog.17 mph93%30.01 "Hg4 mi
11:01 pm60 °FRain. Fog.13 mph93%29.99 "Hg3 mi
9:53 pm60 °FLight rain. Fog.No wind96%29.98 "Hg6 mi
8:53 pm62 °FRain. Fog.3 mph86%30.01 "Hg4 mi
7:53 pm62 °FOvercast.5 mph83%30.01 "Hg10 mi
6:53 pm64 °FMostly cloudy.6 mph75%30.01 "Hg10 mi
5:53 pm62 °FMostly cloudy.No wind83%30.01 "Hg10 mi
4:53 pm65 °FPartly cloudy.3 mph70%30.01 "Hg10 mi
3:53 pm68 °FMostly cloudy.5 mph63%30.01 "Hg10 mi
2:53 pm70 °FMostly cloudy.No wind55%30.02 "Hg10 mi
Weather by CustomWeather, © 2019

See weather overview